Вернуться в каталог

ONEWEB-0455

АктивенСвязьPO
NORAD 51645·PAYLOAD·🇬🇧 United Kingdom

Запущен Feb 10, 2022 с Guiana Space Centre

Loading…

Ближайшие Пролёты (ближайшие 24 часа)

TLE

СвежийSource: Space-Track

Эпоха: Sep 14, 2026, 05:49 UTC

1 51645U 22012Z   26257.24290277  .00000181  00000-0  71405-4 0  9994
2 51645  87.5239 247.2004 0015694 209.2948 150.7365 14.23671851238812

Отслеживайте ONEWEB-0455 в реальном времени с AllMySat

Download on the App Store